| time (UTC) | temp F | wind direction | speed MPH | gust MPH | rain 1hr in | rain 24hr in | rain mn in | humidity % | barometer mb |
| 20260509132702 | 55 | 0 | 0.0 | 0.0 | 0.00 | 0.01 | 0.01 | 91 | 1028.8 |
| 20260509131824 | 55 | 0 | 0.0 | 1.0 | 0.00 | 0.01 | 0.01 | 92 | 1028.9 |
| 20260509130902 | 55 | 0 | 0.0 | 0.0 | 0.00 | 0.01 | 0.01 | 91 | 1028.9 |
| 20260509130003 | 55 | 0 | 0.0 | 0.0 | 0.00 | 0.01 | 0.01 | 91 | 1028.9 |
| 20260509125423 | 55 | 0 | 0.0 | 0.0 | 0.00 | 0.01 | 0.01 | 91 | 1028.9 |
| 20260509124503 | 55 | 0 | 0.0 | 0.0 | 0.00 | 0.01 | 0.01 | 91 | 1028.9 |
| 20260509123602 | 55 | 0 | 0.0 | 0.0 | 0.00 | 0.02 | 0.01 | 91 | 1028.9 |
| 20260509122702 | 55 | 0 | 0.0 | 0.0 | 0.00 | 0.02 | 0.01 | 91 | 1028.9 |
| 20260509121802 | 55 | 0 | 0.0 | 0.0 | 0.00 | 0.02 | 0.01 | 91 | 1029.0 |
| 20260509120903 | 55 | 0 | 0.0 | 0.0 | 0.00 | 0.02 | 0.01 | 91 | 1029.0 |
| 20260509120023 | 55 | 0 | 0.0 | 0.0 | 0.00 | 0.02 | 0.01 | 91 | 1029.0 |
| 20260509115424 | 55 | 0 | 0.0 | 0.0 | 0.00 | 0.02 | 0.01 | 91 | 1028.9 |
| 20260509114523 | 55 | 0 | 0.0 | 1.0 | 0.00 | 0.02 | 0.01 | 91 | 1028.8 |
| 20260509113603 | 55 | 0 | 0.0 | 0.0 | 0.00 | 0.02 | 0.01 | 91 | 1028.7 |
| 20260509112702 | 55 | 0 | 0.0 | 0.0 | 0.00 | 0.02 | 0.01 | 91 | 1028.7 |
| 20260509111803 | 55 | 0 | 0.0 | 0.0 | 0.00 | 0.02 | 0.01 | 90 | 1028.6 |
| 20260509110923 | 55 | 0 | 0.0 | 0.0 | 0.00 | 0.02 | 0.01 | 91 | 1028.6 |
| 20260509110002 | 55 | 0 | 0.0 | 0.0 | 0.00 | 0.02 | 0.01 | 91 | 1028.5 |
| 20260509105402 | 55 | 0 | 0.0 | 0.0 | 0.00 | 0.02 | 0.01 | 91 | 1028.5 |
| 20260509104503 | 56 | 157 | 0.0 | 2.0 | 0.00 | 0.02 | 0.01 | 90 | 1028.4 |
| 20260509103602 | 56 | 157 | 1.0 | 3.0 | 0.00 | 0.02 | 0.01 | 90 | 1028.4 |
| 20260509102702 | 56 | 157 | 0.0 | 4.0 | 0.00 | 0.02 | 0.01 | 90 | 1028.4 |
| 20260509101802 | 56 | 0 | 0.0 | 0.0 | 0.00 | 0.02 | 0.01 | 90 | 1028.4 |
| 20260509095404 | 56 | 0 | 0.0 | 0.0 | 0.00 | 0.02 | 0.01 | 90 | 1028.4 |
| 20260509094504 | 56 | 0 | 0.0 | 0.0 | 0.00 | 0.02 | 0.01 | 90 | 1028.3 |
| 20260509093624 | 57 | 0 | 0.0 | 1.0 | 0.00 | 0.02 | 0.01 | 90 | 1028.3 |
| 20260509092704 | 57 | 0 | 0.0 | 0.0 | 0.00 | 0.02 | 0.01 | 90 | 1028.3 |
| 20260509091804 | 57 | 0 | 0.0 | 0.0 | 0.00 | 0.02 | 0.01 | 89 | 1028.2 |
| 20260509090904 | 57 | 0 | 0.0 | 0.0 | 0.00 | 0.02 | 0.01 | 89 | 1028.1 |
| 20260509090025 | 57 | 0 | 0.0 | 0.0 | 0.00 | 0.02 | 0.01 | 89 | 1028.1 |
| 20260509085403 | 57 | 0 | 0.0 | 0.0 | 0.00 | 0.02 | 0.01 | 89 | 1028.0 |
| 20260509084504 | 57 | 0 | 0.0 | 1.0 | 0.00 | 0.02 | 0.01 | 89 | 1027.9 |
| 20260509083603 | 57 | 0 | 0.0 | 2.0 | 0.00 | 0.02 | 0.01 | 89 | 1027.9 |
| 20260509082704 | 57 | 0 | 0.0 | 0.0 | 0.00 | 0.02 | 0.01 | 89 | 1027.7 |
| 20260509081804 | 57 | 0 | 0.0 | 1.0 | 0.00 | 0.02 | 0.01 | 89 | 1027.7 |
| 20260509080904 | 58 | 0 | 0.0 | 0.0 | 0.00 | 0.02 | 0.01 | 89 | 1027.6 |
| 20260509080004 | 57 | 0 | 0.0 | 0.0 | 0.00 | 0.02 | 0.01 | 89 | 1027.5 |
| 20260509075425 | 57 | 157 | 0.0 | 2.0 | 0.00 | 0.02 | 0.01 | 89 | 1027.4 |
| 20260509074504 | 57 | 157 | 0.0 | 3.0 | 0.00 | 0.02 | 0.01 | 88 | 1027.2 |
| 20260509073604 | 58 | 157 | 1.0 | 3.0 | 0.00 | 0.02 | 0.01 | 88 | 1027.2 |
| 20260509072704 | 58 | 157 | 1.0 | 3.0 | 0.00 | 0.02 | 0.01 | 88 | 1027.1 |
| 20260509071804 | 58 | 157 | 1.0 | 3.0 | 0.00 | 0.02 | 0.01 | 87 | 1027.1 |
| 20260509070924 | 58 | 157 | 1.0 | 2.0 | 0.00 | 0.02 | 0.01 | 87 | 1027.1 |
| 20260509070004 | 58 | 157 | 1.0 | 2.0 | 0.00 | 0.02 | 0.01 | 86 | 1027.1 |
| 20260509065404 | 59 | 157 | 1.0 | 3.0 | 0.00 | 0.02 | 0.01 | 86 | 1026.9 |
| 20260509064504 | 59 | 157 | 1.0 | 2.0 | 0.00 | 0.02 | 0.01 | 85 | 1026.9 |
| 20260509063604 | 59 | 157 | 1.0 | 4.0 | 0.00 | 0.02 | 0.01 | 85 | 1027.0 |
| 20260509062703 | 59 | 157 | 1.0 | 4.0 | 0.00 | 0.02 | 0.01 | 85 | 1026.9 |
| 20260509061804 | 60 | 157 | 0.0 | 3.0 | 0.00 | 0.02 | 0.01 | 85 | 1026.8 |
| 20260509060904 | 60 | 157 | 1.0 | 4.0 | 0.00 | 0.02 | 0.01 | 84 | 1026.8 |
| 20260509060004 | 60 | 157 | 2.0 | 5.0 | 0.00 | 0.02 | 0.01 | 84 | 1026.7 |
| 20260509055404 | 60 | 157 | 1.0 | 6.0 | 0.00 | 0.02 | 0.01 | 84 | 1026.8 |
| 20260509054503 | 60 | 157 | 1.0 | 4.0 | 0.00 | 0.02 | 0.01 | 83 | 1026.7 |
| 20260509053603 | 60 | 157 | 1.0 | 4.0 | 0.00 | 0.03 | 0.01 | 82 | 1026.7 |
| 20260509052703 | 61 | 157 | 1.0 | 3.0 | 0.00 | 0.03 | 0.01 | 81 | 1026.6 |
| 20260509051804 | 61 | 157 | 1.0 | 3.0 | 0.00 | 0.03 | 0.01 | 80 | 1026.6 |
| 20260509050903 | 62 | 157 | 1.0 | 2.0 | 0.00 | 0.03 | 0.01 | 80 | 1026.7 |
| 20260509050004 | 62 | 157 | 1.0 | 4.0 | 0.00 | 0.03 | 0.01 | 79 | 1026.6 |
| 20260509045403 | 62 | 157 | 1.0 | 4.0 | 0.00 | 0.03 | 0.01 | 78 | 1026.7 |
| 20260509044504 | 62 | 157 | 1.0 | 4.0 | 0.00 | 0.03 | 0.01 | 79 | 1026.7 |
| 20260509043603 | 62 | 157 | 1.0 | 3.0 | 0.00 | 0.03 | 0.01 | 79 | 1026.7 |
| 20260509042724 | 62 | 157 | 1.0 | 5.0 | 0.00 | 0.03 | 0.01 | 79 | 1026.6 |
| 20260509041825 | 62 | 157 | 0.0 | 3.0 | 0.00 | 0.03 | 0.01 | 79 | 1026.7 |
| 20260509040924 | 61 | 157 | 1.0 | 3.0 | 0.00 | 0.03 | 0.01 | 81 | 1026.7 |
| 20260509040004 | 61 | 157 | 1.0 | 6.0 | 0.00 | 0.03 | 0.01 | 80 | 1026.7 |
| 20260509035403 | 61 | 157 | 1.0 | 6.0 | 0.00 | 0.03 | 0.01 | 80 | 1026.8 |
| 20260509034503 | 61 | 157 | 2.0 | 4.0 | 0.00 | 0.03 | 0.01 | 80 | 1026.7 |
| 20260509033603 | 61 | 157 | 1.0 | 5.0 | 0.00 | 0.03 | 0.01 | 80 | 1026.7 |
| 20260509032703 | 61 | 157 | 1.0 | 2.0 | 0.00 | 0.03 | 0.01 | 82 | 1026.8 |
| 20260509031824 | 60 | 157 | 1.0 | 3.0 | 0.00 | 0.03 | 0.01 | 82 | 1026.9 |
| 20260509030903 | 60 | 157 | 2.0 | 6.0 | 0.00 | 0.03 | 0.01 | 82 | 1026.9 |
| 20260509030004 | 60 | 157 | 1.0 | 6.0 | 0.00 | 0.03 | 0.01 | 81 | 1027.1 |
| 20260509025403 | 61 | 157 | 0.0 | 6.0 | 0.00 | 0.03 | 0.01 | 81 | 1027.2 |
| 20260509024503 | 61 | 157 | 1.0 | 4.0 | 0.00 | 0.03 | 0.01 | 81 | 1027.2 |
| 20260509023624 | 61 | 157 | 1.0 | 4.0 | 0.00 | 0.03 | 0.01 | 81 | 1027.3 |
| 20260509022703 | 61 | 157 | 1.0 | 3.0 | 0.00 | 0.03 | 0.01 | 82 | 1027.3 |
| 20260509021803 | 60 | 157 | 1.0 | 5.0 | 0.00 | 0.03 | 0.01 | 83 | 1027.5 |
| 20260509020903 | 60 | 157 | 1.0 | 4.0 | 0.00 | 0.03 | 0.01 | 83 | 1027.5 |
| 20260509020004 | 60 | 157 | 1.0 | 4.0 | 0.00 | 0.03 | 0.01 | 86 | 1027.7 |
| 20260509015403 | 59 | 157 | 1.0 | 3.0 | 0.00 | 0.03 | 0.01 | 86 | 1027.7 |
| 20260509014503 | 60 | 157 | 0.0 | 4.0 | 0.00 | 0.03 | 0.01 | 87 | 1027.8 |
| 20260509013624 | 60 | 157 | 1.0 | 3.0 | 0.00 | 0.03 | 0.01 | 89 | 1027.9 |
| 20260509012724 | 59 | 157 | 1.0 | 4.0 | 0.00 | 0.03 | 0.01 | 91 | 1027.8 |
| 20260509011803 | 59 | 157 | 1.0 | 5.0 | 0.00 | 0.04 | 0.01 | 94 | 1027.9 |
| 20260509010903 | 58 | 157 | 0.0 | 6.0 | 0.00 | 0.04 | 0.01 | 94 | 1028.0 |
| 20260509010003 | 57 | 157 | 0.0 | 3.0 | 0.00 | 0.04 | 0.01 | 94 | 1028.0 |
| 20260509005424 | 57 | 157 | 1.0 | 3.0 | 0.00 | 0.04 | 0.01 | 95 | 1028.0 |
| 20260509004503 | 57 | 157 | 0.0 | 4.0 | 0.00 | 0.04 | 0.01 | 96 | 1027.9 |
| 20260509003624 | 56 | 0 | 0.0 | 2.0 | 0.00 | 0.04 | 0.01 | 96 | 1027.9 |
| 20260509002704 | 56 | 0 | 0.0 | 2.0 | 0.00 | 0.04 | 0.01 | 95 | 1027.9 |
| 20260509001803 | 56 | 0 | 0.0 | 2.0 | 0.00 | 0.04 | 0.01 | 96 | 1027.9 |
| 20260509000924 | 55 | 0 | 0.0 | 2.0 | 0.00 | 0.04 | 0.01 | 96 | 1027.8 |
| 20260509000003 | 55 | 157 | 0.0 | 2.0 | 0.00 | 0.04 | 0.01 | 96 | 1027.9 |
| 20260508235403 | 55 | 157 | 0.0 | 3.0 | 0.00 | 0.04 | 0.01 | 95 | 1028.0 |
| 20260508234503 | 55 | 157 | 1.0 | 5.0 | 0.00 | 0.04 | 0.01 | 96 | 1028.0 |
| 20260508233603 | 55 | 157 | 0.0 | 3.0 | 0.00 | 0.04 | 0.01 | 96 | 1028.0 |
| 20260508232703 | 55 | 0 | 0.0 | 2.0 | 0.00 | 0.05 | 0.01 | 96 | 1027.9 |
| 20260508231803 | 54 | 0 | 0.0 | 1.0 | 0.00 | 0.06 | 0.01 | 96 | 1027.8 |
| 20260508230924 | 54 | 0 | 0.0 | 1.0 | 0.00 | 0.06 | 0.01 | 96 | 1027.8 |
| 20260508230003 | 54 | 0 | 0.0 | 2.0 | 0.00 | 0.07 | 0.01 | 96 | 1027.7 |
| 20260508225403 | 54 | 0 | 0.0 | 1.0 | 0.00 | 0.07 | 0.01 | 96 | 1027.7 |
| 20260508224503 | 54 | 0 | 0.0 | 1.0 | 0.00 | 0.07 | 0.01 | 96 | 1027.7 |
| 20260508223603 | 54 | 0 | 0.0 | 2.0 | 0.00 | 0.07 | 0.01 | 96 | 1027.5 |
| 20260508222724 | 54 | 0 | 0.0 | 2.0 | 0.00 | 0.08 | 0.01 | 96 | 1027.5 |
| 20260508221803 | 53 | 0 | 0.0 | 0.0 | 0.00 | 0.08 | 0.01 | 96 | 1027.4 |
| 20260508220903 | 53 | 0 | 0.0 | 0.0 | 0.00 | 0.08 | 0.01 | 96 | 1027.3 |
| 20260508220003 | 53 | 0 | 0.0 | 0.0 | 0.00 | 0.08 | 0.01 | 96 | 1027.2 |
| 20260508215403 | 53 | 0 | 0.0 | 0.0 | 0.00 | 0.08 | 0.01 | 95 | 1027.1 |
| 20260508214503 | 53 | 0 | 0.0 | 2.0 | 0.01 | 0.08 | 0.01 | 95 | 1027.1 |
| 20260508213603 | 53 | 0 | 0.0 | 1.0 | 0.01 | 0.08 | 0.01 | 95 | 1027.0 |
| 20260508212703 | 53 | 0 | 0.0 | 1.0 | 0.01 | 0.08 | 0.01 | 95 | 1027.1 |
| 20260508211824 | 53 | 0 | 0.0 | 1.0 | 0.01 | 0.11 | 0.01 | 95 | 1026.9 |
| 20260508210903 | 53 | 0 | 0.0 | 0.0 | 0.01 | 0.14 | 0.01 | 95 | 1026.9 |
| 20260508210003 | 53 | 0 | 0.0 | 1.0 | 0.01 | 0.14 | 0.01 | 95 | 1026.9 |
| 20260508205403 | 53 | 0 | 0.0 | 1.0 | 0.01 | 0.15 | 0.01 | 95 | 1026.8 |
| 20260508204503 | 53 | 0 | 0.0 | 0.0 | 0.00 | 0.15 | 0.00 | 95 | 1026.8 |
| 20260508203603 | 53 | 0 | 0.0 | 0.0 | 0.00 | 0.15 | 0.00 | 95 | 1026.7 |
| 20260508202703 | 52 | 0 | 0.0 | 1.0 | 0.00 | 0.15 | 0.00 | 95 | 1026.6 |
| 20260508201803 | 52 | 0 | 0.0 | 3.0 | 0.00 | 0.15 | 0.00 | 95 | 1026.4 |
| 20260508200903 | 52 | 0 | 0.0 | 1.0 | 0.00 | 0.16 | 0.00 | 95 | 1026.4 |
| 20260508200024 | 52 | 0 | 0.0 | 0.0 | 0.00 | 0.18 | 0.00 | 95 | 1026.3 |
| 20260508195403 | 52 | 0 | 0.0 | 1.0 | 0.00 | 0.21 | 0.00 | 95 | 1026.2 |
| 20260508194503 | 52 | 0 | 0.0 | 0.0 | 0.00 | 0.24 | 0.00 | 95 | 1026.1 |
| 20260508193603 | 52 | 0 | 0.0 | 0.0 | 0.00 | 0.26 | 0.00 | 95 | 1026.0 |
| 20260508192703 | 51 | 0 | 0.0 | 0.0 | 0.00 | 0.27 | 0.00 | 95 | 1026.0 |
| 20260508191803 | 51 | 0 | 0.0 | 0.0 | 0.00 | 0.27 | 0.00 | 95 | 1026.0 |
| 20260508190924 | 51 | 0 | 0.0 | 2.0 | 0.00 | 0.29 | 0.00 | 95 | 1025.9 |
| 20260508190003 | 51 | 0 | 0.0 | 1.0 | 0.00 | 0.30 | 0.00 | 95 | 1025.8 |
| 20260508185403 | 51 | 0 | 0.0 | 1.0 | 0.00 | 0.31 | 0.00 | 95 | 1025.8 |
| 20260508184504 | 50 | 0 | 0.0 | 3.0 | 0.00 | 0.32 | 0.00 | 95 | 1025.8 |
| 20260508183603 | 50 | 0 | 0.0 | 0.0 | 0.00 | 0.32 | 0.00 | 94 | 1025.7 |
| 20260508182724 | 50 | 0 | 0.0 | 0.0 | 0.00 | 0.33 | 0.00 | 94 | 1025.6 |
| 20260508181824 | 50 | 0 | 0.0 | 0.0 | 0.00 | 0.34 | 0.00 | 94 | 1025.6 |
| 20260508180903 | 50 | 0 | 0.0 | 0.0 | 0.00 | 0.34 | 0.00 | 94 | 1025.5 |
| 20260508180003 | 50 | 0 | 0.0 | 0.0 | 0.00 | 0.34 | 0.00 | 94 | 1025.5 |
| 20260508175403 | 50 | 0 | 0.0 | 0.0 | 0.00 | 0.35 | 0.00 | 94 | 1025.5 |
| 20260508174503 | 51 | 0 | 0.0 | 0.0 | 0.00 | 0.35 | 0.00 | 94 | 1025.4 |
| 20260508173603 | 51 | 0 | 0.0 | 0.0 | 0.00 | 0.36 | 0.00 | 94 | 1025.5 |
| 20260508172703 | 51 | 0 | 0.0 | 0.0 | 0.00 | 0.36 | 0.00 | 94 | 1025.5 |
| 20260508171803 | 51 | 0 | 0.0 | 0.0 | 0.00 | 0.36 | 0.00 | 94 | 1025.6 |
| 20260508170903 | 51 | 0 | 0.0 | 0.0 | 0.00 | 0.36 | 0.00 | 94 | 1025.6 |
| 20260508170003 | 51 | 0 | 0.0 | 0.0 | 0.00 | 0.36 | 0.00 | 94 | 1025.5 |
| 20260508165424 | 51 | 0 | 0.0 | 0.0 | 0.00 | 0.36 | 0.00 | 94 | 1025.5 |
| 20260508164524 | 51 | 0 | 0.0 | 1.0 | 0.00 | 0.36 | 0.00 | 94 | 1025.5 |
| 20260508163603 | 51 | 0 | 0.0 | 0.0 | 0.00 | 0.36 | 0.00 | 94 | 1025.4 |
| 20260508162703 | 51 | 0 | 0.0 | 0.0 | 0.00 | 0.36 | 0.00 | 94 | 1025.3 |
| 20260508161824 | 51 | 0 | 0.0 | 0.0 | 0.00 | 0.36 | 0.00 | 94 | 1025.4 |
| 20260508160903 | 51 | 0 | 0.0 | 0.0 | 0.00 | 0.36 | 0.00 | 94 | 1025.4 |
| 20260508160003 | 51 | 0 | 0.0 | 0.0 | 0.00 | 0.37 | 0.00 | 94 | 1025.3 |
| 20260508155403 | 51 | 0 | 0.0 | 0.0 | 0.00 | 0.37 | 0.00 | 94 | 1025.2 |
| 20260508154503 | 51 | 0 | 0.0 | 0.0 | 0.00 | 0.37 | 0.00 | 94 | 1025.3 |
| 20260508153603 | 51 | 0 | 0.0 | 0.0 | 0.00 | 0.37 | 0.00 | 94 | 1025.3 |
| 20260508152724 | 51 | 0 | 0.0 | 0.0 | 0.00 | 0.37 | 0.00 | 94 | 1025.4 |
| 20260508151803 | 51 | 0 | 0.0 | 0.0 | 0.00 | 0.37 | 0.00 | 94 | 1025.2 |
| 20260508150903 | 51 | 0 | 0.0 | 0.0 | 0.00 | 0.37 | 0.00 | 94 | 1025.3 |
| 20260508150003 | 51 | 0 | 0.0 | 0.0 | 0.00 | 0.37 | 0.00 | 94 | 1025.4 |
| 20260508145424 | 51 | 0 | 0.0 | 0.0 | 0.00 | 0.37 | 0.00 | 94 | 1025.3 |
| 20260508144503 | 51 | 0 | 0.0 | 0.0 | 0.00 | 0.37 | 0.00 | 94 | 1025.3 |
| 20260508143603 | 51 | 0 | 0.0 | 0.0 | 0.00 | 0.37 | 0.00 | 94 | 1025.3 |
| 20260508142703 | 51 | 0 | 0.0 | 0.0 | 0.00 | 0.37 | 0.00 | 94 | 1025.4 |
| 20260508141802 | 51 | 0 | 0.0 | 0.0 | 0.00 | 0.37 | 0.00 | 94 | 1025.3 |
| 20260508140924 | 51 | 0 | 0.0 | 0.0 | 0.00 | 0.37 | 0.00 | 94 | 1025.3 |
| 20260508140024 | 51 | 0 | 0.0 | 0.0 | 0.00 | 0.37 | 0.00 | 94 | 1025.4 |
| 20260508135403 | 51 | 0 | 0.0 | 0.0 | 0.00 | 0.37 | 0.37 | 94 | 1025.4 |
| 20260508134503 | 52 | 0 | 0.0 | 0.0 | 0.00 | 0.37 | 0.37 | 94 | 1025.4 |
| 20260508133603 | 52 | 0 | 0.0 | 0.0 | 0.01 | 0.37 | 0.37 | 94 | 1025.4 |